DW0326 Weather Reports


Display with metric or nautical units.
time (UTC)temp
F
wind
direction
speed
MPH
gust
MPH
rain 1hr
in
rain 24hr
in
rain mn
in
humidity
%
barometer
mb
20260901021919 86 0 0.0 0.0 0.00 0.00 0.00 78 1009.4
20260901021019 86 0 0.0 0.0 0.00 0.00 0.00 78 1009.4
20260901020118 86 0 0.0 0.0 0.00 0.00 0.00 78 1009.2
20260901015219 86 0 0.0 0.0 0.00 0.00 0.00 78 1009.2
20260901014319 86 164 0.0 4.0 0.00 0.00 0.00 77 1009.2
20260901013419 87 0 0.0 0.0 0.00 0.00 0.00 77 1009.2
20260901011619 87 0 0.0 0.0 0.00 0.00 0.00 77 1009.2
20260901004919 88 164 0.0 6.0 0.00 0.00 0.00 75 1009.5
20260901004019 88 164 0.0 6.0 0.00 0.00 0.00 74 1009.5
20260901003118 88 0 0.0 0.0 0.00 0.00 0.00 74 1009.4
20260901001319 89 164 0.0 6.0 0.00 0.00 0.00 74 1009.3
20260901000420 89 164 0.0 6.0 0.00 0.00 0.00 74 1009.3
20260831235518 89 0 0.0 0.0 0.00 0.00 0.00 74 1009.3
20260831234618 89 0 0.0 0.0 0.00 0.00 0.00 73 1009.3
20260831233719 89 0 0.0 0.0 0.00 0.00 0.00 74 1009.3
20260831232818 89 0 0.0 0.0 0.00 0.00 0.00 74 1009.4
20260831231019 89 0 0.0 0.0 0.00 0.00 0.00 74 1009.4
20260831225218 89 0 0.0 0.0 0.00 0.00 0.00 76 1009.5
20260831224318 89 0 0.0 0.0 0.00 0.00 0.00 75 1009.5
20260831223418 89 155 0.0 5.0 0.00 0.00 0.00 76 1009.5
20260831222518 88 0 0.0 0.0 0.00 0.00 0.00 75 1009.5
20260831221618 88 0 0.0 0.0 0.00 0.00 0.00 76 1009.6
20260831215819 88 0 0.0 0.0 0.00 0.00 0.00 77 1009.7
20260831214919 87 0 0.0 0.0 0.00 0.00 0.00 78 1009.9
20260831214019 87 0 0.0 0.0 0.00 0.00 0.00 78 1009.9
20260831211319 85 0 0.0 0.0 0.00 0.00 0.00 81 1010.4
20260831210418 84 0 0.0 0.0 0.00 0.00 0.00 80 1010.6
20260831204619 84 0 0.0 0.0 0.00 0.00 0.00 84 1010.6
20260831202818 84 0 0.0 0.0 0.00 0.00 0.00 84 1010.9
20260831201918 84 0 0.0 0.0 0.00 0.00 0.00 86 1011.1
20260831201019 85 0 0.0 0.0 0.00 0.00 0.00 83 1011.1
20260831200118 86 96 0.0 2.0 0.00 0.00 0.00 81 1011.1
20260831195219 87 102 1.0 9.0 0.00 0.00 0.00 78 1011.1
20260831194318 88 87 3.0 11.0 0.00 0.00 0.00 75 1011.2
20260831193418 89 90 2.0 12.0 0.00 0.00 0.00 74 1011.6
20260831190718 92 119 1.0 7.0 0.00 0.00 0.00 71 1011.3
20260831185819 93 87 0.0 7.0 0.00 0.00 0.00 69 1011.4
20260831184918 93 89 0.0 4.0 0.00 0.00 0.00 68 1011.7
20260831181318 93 0 0.0 0.0 0.00 0.00 0.00 69 1012.0
20260831175519 92 0 0.0 0.0 0.00 0.00 0.00 69 1012.1
20260831172818 92 0 0.0 0.0 0.00 0.00 0.00 71 1012.2
20260831171018 92 108 0.0 1.0 0.00 0.00 0.00 69 1012.3
20260831170119 92 88 0.0 6.0 0.00 0.00 0.00 70 1012.4
20260831165218 91 0 0.0 0.0 0.00 0.00 0.00 72 1012.4
20260831164318 91 0 0.0 0.0 0.00 0.00 0.00 72 1012.6
20260831161618 90 4 0.0 6.0 0.00 0.00 0.00 75 1012.6
20260831160718 90 302 0.0 4.0 0.00 0.00 0.00 74 1012.6
20260831155818 89 0 0.0 0.0 0.00 0.00 0.00 75 1012.7
20260831154919 89 0 0.0 0.0 0.00 0.00 0.00 75 1012.7
20260831154018 89 0 0.0 0.0 0.00 0.00 0.00 76 1012.7
20260831152218 88 0 0.0 0.0 0.00 0.00 0.00 77 1012.7
20260831151318 88 0 0.0 0.0 0.00 0.00 0.00 76 1012.7
20260831150419 87 0 0.0 0.0 0.00 0.00 0.00 82 1012.4
20260831145519 87 0 0.0 0.0 0.00 0.00 0.00 84 1012.4
20260831144619 86 0 0.0 0.0 0.00 0.00 0.00 84 1012.2
20260831143719 86 0 0.0 0.0 0.00 0.00 0.00 85 1012.2
20260831142819 85 0 0.0 0.0 0.00 0.00 0.00 85 1012.3
20260831141019 84 0 0.0 0.0 0.00 0.00 0.00 88 1012.2
20260831140118 84 0 0.0 0.0 0.00 0.00 0.00 89 1012.2
20260831135219 83 0 0.0 0.0 0.00 0.00 0.00 90 1012.2
20260831134318 82 0 0.0 0.0 0.00 0.00 0.00 92 1012.1
20260831133419 81 0 0.0 0.0 0.00 0.00 0.00 93 1011.9
20260831132519 80 0 0.0 0.0 0.00 0.00 0.00 95 1011.9
20260831130718 79 0 0.0 0.0 0.00 0.00 0.00 94 1011.7
20260831125819 79 0 0.0 0.0 0.00 0.00 0.00 94 1011.5
20260831124018 79 0 0.0 0.0 0.00 0.00 0.00 93 1011.6
20260831123118 79 0 0.0 0.0 0.00 0.00 0.00 93 1011.2
20260831122219 79 0 0.0 0.0 0.00 0.00 0.00 92 1011.2
20260831115519 80 0 0.0 0.0 0.00 0.00 0.00 92 1010.7
20260831114618 80 0 0.0 0.0 0.00 0.00 0.00 91 1010.7
20260831113718 80 0 0.0 0.0 0.00 0.00 0.00 91 1010.7
20260831111918 80 0 0.0 0.0 0.00 0.00 0.00 91 1010.7
20260831111019 80 0 0.0 0.0 0.00 0.00 0.00 91 1010.7
20260831110118 80 0 0.0 0.0 0.00 0.00 0.00 91 1010.7
20260831105219 80 0 0.0 0.0 0.00 0.00 0.00 91 1010.7
20260831104318 80 0 0.0 0.0 0.00 0.00 0.00 91 1010.7
20260831103418 80 0 0.0 0.0 0.00 0.00 0.00 91 1010.7
20260831102518 80 0 0.0 0.0 0.00 0.00 0.00 91 1010.7
20260831100718 80 0 0.0 0.0 0.00 0.00 0.00 91 1010.9
20260831095818 80 0 0.0 0.0 0.00 0.00 0.00 90 1010.8
20260831094018 80 0 0.0 0.0 0.00 0.00 0.00 90 1010.7
20260831091319 80 0 0.0 0.0 0.00 0.00 0.00 90 1010.6
20260831090418 81 0 0.0 0.0 0.00 0.00 0.00 90 1010.7
20260831085518 81 0 0.0 0.0 0.00 0.00 0.00 89 1010.7
20260831084618 81 0 0.0 0.0 0.00 0.00 0.00 89 1010.8
20260831083718 81 0 0.0 0.0 0.00 0.00 0.00 89 1010.8
20260831082818 81 0 0.0 0.0 0.00 0.00 0.00 89 1010.9
20260831081918 81 0 0.0 0.0 0.00 0.00 0.00 89 1011.0
20260831081018 81 0 0.0 0.0 0.00 0.00 0.00 89 1011.0
20260831080118 81 0 0.0 0.0 0.00 0.00 0.00 89 1010.9
20260831075218 81 0 0.0 0.0 0.00 0.00 0.00 88 1010.9
20260831074318 82 0 0.0 0.0 0.00 0.00 0.00 88 1011.0
20260831073418 82 0 0.0 0.0 0.00 0.00 0.00 88 1010.9
20260831072518 82 0 0.0 0.0 0.00 0.00 0.00 88 1010.9
20260831070718 82 0 0.0 0.0 0.00 0.00 0.00 87 1011.1
20260831065818 82 0 0.0 0.0 0.00 0.00 0.00 87 1011.1
20260831064918 82 0 0.0 0.0 0.00 0.00 0.00 87 1011.2
20260831063118 82 0 0.0 0.0 0.00 0.00 0.00 87 1011.2
20260831062218 83 0 0.0 0.0 0.00 0.00 0.00 87 1011.2
20260831061318 83 185 1.0 11.0 0.00 0.00 0.00 87 1011.2
20260831060419 83 206 1.0 7.0 0.00 0.00 0.00 86 1011.2
20260831054618 83 0 0.0 0.0 0.00 0.00 0.00 86 1011.2
20260831052818 83 218 0.0 3.0 0.00 0.00 0.00 86 1011.2
20260831051018 84 229 0.0 7.0 0.00 0.00 0.00 85 1011.1
20260831050118 84 0 0.0 0.0 0.00 0.00 0.00 85 1011.1
20260831045218 84 183 0.0 7.0 0.00 0.00 0.00 85 1011.1
20260831043418 84 0 0.0 0.0 0.00 0.00 0.00 84 1010.8
20260831042518 84 184 2.0 9.0 0.00 0.00 0.00 84 1010.8
20260831041618 84 181 2.0 6.0 0.00 0.00 0.00 84 1010.8
20260831040718 84 182 1.0 7.0 0.00 0.00 0.00 83 1010.8
20260831035818 84 199 1.0 7.0 0.00 0.00 0.00 83 1010.8
20260831034018 85 196 1.0 7.0 0.00 0.00 0.00 82 1010.6
20260831033118 85 192 1.0 8.0 0.00 0.00 0.00 82 1010.6
20260831032218 85 176 1.0 7.0 0.00 0.00 0.00 81 1010.6
20260831031317 85 164 0.0 5.0 0.00 0.00 0.00 81 1010.2
20260831030418 85 177 2.0 8.0 0.00 0.00 0.00 80 1010.1
20260831025518 86 179 1.0 9.0 0.00 0.00 0.00 80 1010.1
20260831023718 86 174 1.0 10.0 0.00 0.00 0.00 79 1010.0